• en Suisse
  • Liste des pays
  • À 7 jours
  • Température de l'eau
  • Carte satellitaire
  • Carte météo
  • Widgets météo
  • user-avatar
    Se connecter

    Météo par heure à Bergen

    Ce jour, 22 Novembre, Mercredi

    Heure Température Précipitation Vent Pression Humidité
    00:00 -4°C° 0 mm 5 m/s 744 mmHg 69%
    01:00 -4°C° 0,8 mm 5 m/s 743 mmHg 74%
    02:00 -4°C° 0,8 mm 6 m/s 742 mmHg 80%
    03:00 -4°C° 0,8 mm 7 m/s 741 mmHg 85%
    04:00 -4°C° 1,3 mm 7 m/s 740 mmHg 86%
    05:00 -5°C° 1,3 mm 8 m/s 739 mmHg 87%
    06:00 -5°C° 1,3 mm 8 m/s 738 mmHg 88%
    07:00 -5°C° 0,9 mm 8 m/s 737 mmHg 87%
    08:00 -5°C° 0,9 mm 8 m/s 737 mmHg 86%
    09:00 -4°C° 0,9 mm 7 m/s 736 mmHg 84%
    10:00 -5°C° 0,7 mm 8 m/s 736 mmHg 85%
    11:00 -5°C° 0,7 mm 8 m/s 736 mmHg 86%
    12:00 -5°C° 0,7 mm 8 m/s 736 mmHg 86%
    13:00 -4°C° 0,5 mm 7 m/s 735 mmHg 87%
    14:00 -4°C° 0,5 mm 7 m/s 735 mmHg 87%
    15:00 -3°C° 0,5 mm 7 m/s 735 mmHg 87%
    16:00 -3°C° 1 mm 7 m/s 734 mmHg 89%
    17:00 -3°C° 1 mm 6 m/s 733 mmHg 90%
    18:00 -3°C° 1 mm 6 m/s 733 mmHg 91%
    19:00 -2°C° 0,8 mm 6 m/s 732 mmHg 91%
    20:00 -1°C° 0,8 mm 5 m/s 731 mmHg 91%
    21:00 -1°C° 0,8 mm 5 m/s 730 mmHg 91%
    22:00 0°C° 1,7 mm 5 m/s 730 mmHg 92%
    23:00 0°C° 1,7 mm 5 m/s 729 mmHg 93%

    Demain, 23 Novembre, Jeudi

    Heure Température Précipitation Vent Pression Humidité
    00:00 +1°C° 1,7 mm 5 m/s 728 mmHg 94%
    01:00 +1°C° 3,9 mm 5 m/s 727 mmHg 95%
    02:00 +2°C° 3,9 mm 5 m/s 726 mmHg 95%
    03:00 +3°C° 3,9 mm 6 m/s 725 mmHg 96%
    04:00 +3°C° 3,6 mm 6 m/s 725 mmHg 96%
    05:00 +5°C° 3,6 mm 5 m/s 724 mmHg 96%
    06:00 +5°C° 3,6 mm 5 m/s 723 mmHg 97%
    07:00 +5°C° 2,3 mm 6 m/s 723 mmHg 97%
    08:00 +5°C° 2,3 mm 6 m/s 723 mmHg 97%
    09:00 +7°C° 2,3 mm 6 m/s 723 mmHg 98%
    10:00 +7°C° 2,1 mm 6 m/s 723 mmHg 98%
    11:00 +6°C° 2,1 mm 7 m/s 722 mmHg 98%
    12:00 +6°C° 2,1 mm 8 m/s 722 mmHg 98%
    13:00 +5°C° 1,4 mm 10 m/s 722 mmHg 94%
    14:00 +4°C° 1,4 mm 11 m/s 722 mmHg 90%
    15:00 +3°C° 1,4 mm 13 m/s 722 mmHg 86%
    16:00 +3°C° 0,7 mm 12 m/s 723 mmHg 87%
    17:00 +3°C° 0,7 mm 11 m/s 723 mmHg 87%
    18:00 +2°C° 0,7 mm 9 m/s 724 mmHg 87%
    19:00 +2°C° 1,3 mm 10 m/s 725 mmHg 88%
    20:00 +2°C° 1,3 mm 10 m/s 727 mmHg 88%
    21:00 +1°C° 1,3 mm 10 m/s 729 mmHg 89%
    22:00 +1°C° 0,5 mm 10 m/s 730 mmHg 86%
    23:00 +1°C° 0,5 mm 9 m/s 732 mmHg 82%

    Après-demain, 24 Novembre, Vendredi

    Heure Température Précipitation Vent Pression Humidité
    00:00 +1°C° 0,5 mm 9 m/s 734 mmHg 79%
    01:00 +1°C° 0,5 mm 10 m/s 734 mmHg 79%
    02:00 0°C° 0,5 mm 10 m/s 735 mmHg 80%
    03:00 -1°C° 0,5 mm 11 m/s 736 mmHg 80%
    04:00 -1°C° 0,5 mm 11 m/s 736 mmHg 79%
    05:00 -1°C° 0,5 mm 11 m/s 736 mmHg 77%
    06:00 -1°C° 0,5 mm 12 m/s 736 mmHg 76%
    07:00 -1°C° 0,4 mm 12 m/s 736 mmHg 76%
    08:00 -1°C° 0,4 mm 13 m/s 736 mmHg 76%
    09:00 -1°C° 0,4 mm 13 m/s 737 mmHg 76%
    10:00 -1°C° 0,4 mm 13 m/s 736 mmHg 76%
    11:00 -1°C° 0,4 mm 14 m/s 736 mmHg 76%
    12:00 0°C° 0,4 mm 14 m/s 736 mmHg 76%
    13:00 0°C° 0,9 mm 14 m/s 737 mmHg 78%
    14:00 0°C° 0,9 mm 15 m/s 737 mmHg 80%
    15:00 0°C° 0,9 mm 15 m/s 737 mmHg 82%
    16:00 0°C° 2,2 mm 14 m/s 738 mmHg 84%
    17:00 0°C° 2,2 mm 14 m/s 738 mmHg 85%
    18:00 0°C° 2,2 mm 14 m/s 739 mmHg 86%
    19:00 0°C° 1,3 mm 13 m/s 739 mmHg 85%
    20:00 0°C° 1,3 mm 13 m/s 739 mmHg 84%
    21:00 0°C° 1,3 mm 12 m/s 740 mmHg 83%
    22:00 0°C° 0,6 mm 12 m/s 740 mmHg 82%
    23:00 -1°C° 0,6 mm 11 m/s 741 mmHg 81%

    25 Novembre, Samedi

    Heure Température Précipitation Vent Pression Humidité
    00:00 0°C° 0,6 mm 10 m/s 741 mmHg 80%
    01:00 0°C° 0,6 mm 10 m/s 741 mmHg 81%
    02:00 -1°C° 0,6 mm 9 m/s 741 mmHg 82%
    03:00 -1°C° 0,6 mm 9 m/s 741 mmHg 83%
    04:00 -1°C° 0,8 mm 8 m/s 741 mmHg 84%
    05:00 -1°C° 0,8 mm 8 m/s 741 mmHg 86%
    06:00 -1°C° 0,8 mm 8 m/s 742 mmHg 87%
    07:00 -1°C° 1,2 mm 7 m/s 742 mmHg 88%
    08:00 -1°C° 1,2 mm 7 m/s 742 mmHg 88%
    09:00 -1°C° 1,2 mm 7 m/s 742 mmHg 88%
    10:00 -1°C° 0,9 mm 7 m/s 742 mmHg 88%
    11:00 -1°C° 0,9 mm 7 m/s 742 mmHg 88%
    12:00 -1°C° 0,9 mm 7 m/s 742 mmHg 88%
    13:00 -1°C° 0,4 mm 7 m/s 742 mmHg 87%
    14:00 -1°C° 0,4 mm 7 m/s 742 mmHg 87%
    15:00 -2°C° 0,4 mm 7 m/s 742 mmHg 86%
    16:00 -2°C° 0,3 mm 7 m/s 742 mmHg 86%
    17:00 -3°C° 0,3 mm 7 m/s 742 mmHg 85%
    18:00 -3°C° 0,3 mm 7 m/s 742 mmHg 85%
    19:00 -3°C° 0,1 mm 7 m/s 741 mmHg 84%
    20:00 -4°C° 0,1 mm 7 m/s 741 mmHg 83%
    21:00 -4°C° 0,1 mm 7 m/s 741 mmHg 83%
    22:00 -6°C° 0,1 mm 7 m/s 741 mmHg 82%
    23:00 -6°C° 0,1 mm 8 m/s 741 mmHg 82%

    26 Novembre, Dimanche

    Heure Température Précipitation Vent Pression Humidité
    00:00 -6°C° 0,1 mm 8 m/s 740 mmHg 82%
    01:00 -6°C° 0,4 mm 8 m/s 740 mmHg 83%
    02:00 -5°C° 0,4 mm 8 m/s 739 mmHg 84%
    03:00 -4°C° 0,4 mm 7 m/s 739 mmHg 85%
    04:00 -4°C° 0,5 mm 7 m/s 738 mmHg 86%
    05:00 -4°C° 0,5 mm 6 m/s 738 mmHg 87%
    06:00 -4°C° 0,5 mm 6 m/s 738 mmHg 88%
    07:00 -3°C° 0,9 mm 6 m/s 737 mmHg 89%
    08:00 -2°C° 0,9 mm 5 m/s 737 mmHg 90%
    09:00 -2°C° 0,9 mm 5 m/s 737 mmHg 91%
    10:00 -2°C° 1,1 mm 5 m/s 737 mmHg 91%
    11:00 -1°C° 1,1 mm 5 m/s 736 mmHg 91%
    12:00 -1°C° 1,1 mm 5 m/s 736 mmHg 91%
    13:00 0°C° 1,1 mm 5 m/s 736 mmHg 92%
    14:00 0°C° 1,1 mm 5 m/s 736 mmHg 92%
    15:00 0°C° 1,1 mm 5 m/s 736 mmHg 92%
    16:00 -1°C° 1 mm 6 m/s 736 mmHg 92%
    17:00 -1°C° 1 mm 6 m/s 736 mmHg 92%
    18:00 -1°C° 1 mm 6 m/s 737 mmHg 92%
    19:00 -2°C° 0,4 mm 7 m/s 737 mmHg 91%
    20:00 -2°C° 0,4 mm 7 m/s 738 mmHg 90%
    21:00 -4°C° 0,4 mm 8 m/s 739 mmHg 89%
    22:00 -5°C° 0 mm 8 m/s 740 mmHg 88%
    23:00 -6°C° 0 mm 7 m/s 741 mmHg 87%

    27 Novembre, Lundi

    Heure Température Précipitation Vent Pression Humidité
    00:00 -7°C° 0 mm 7 m/s 742 mmHg 86%
    01:00 -6°C° 0 mm 6 m/s 742 mmHg 87%
    02:00 -6°C° 0 mm 5 m/s 743 mmHg 87%
    03:00 -7°C° 0 mm 5 m/s 743 mmHg 88%
    04:00 -7°C° 0,1 mm 4 m/s 744 mmHg 88%
    05:00 -7°C° 0,1 mm 4 m/s 744 mmHg 88%
    06:00 -6°C° 0,1 mm 3 m/s 744 mmHg 88%
    07:00 -6°C° 0,1 mm 3 m/s 745 mmHg 89%
    08:00 -4°C° 0,1 mm 2 m/s 745 mmHg 89%
    09:00 -4°C° 0,1 mm 2 m/s 745 mmHg 89%
    10:00 -4°C° 0,1 mm 2 m/s 746 mmHg 89%
    11:00 -3°C° 0,1 mm 2 m/s 746 mmHg 88%
    12:00 -3°C° 0,1 mm 2 m/s 746 mmHg 88%
    13:00 -3°C° 0,1 mm 2 m/s 746 mmHg 88%
    14:00 -4°C° 0,1 mm 2 m/s 746 mmHg 87%
    15:00 -4°C° 0,1 mm 2 m/s 746 mmHg 87%
    16:00 -5°C° 0 mm 3 m/s 746 mmHg 86%
    17:00 -5°C° 0 mm 3 m/s 746 mmHg 85%
    18:00 -6°C° 0 mm 3 m/s 746 mmHg 84%
    19:00 -6°C° 0 mm 3 m/s 746 mmHg 83%
    20:00 -6°C° 0 mm 3 m/s 746 mmHg 82%
    21:00 -7°C° 0 mm 4 m/s 746 mmHg 81%
    22:00 -7°C° 0 mm 4 m/s 745 mmHg 79%
    23:00 -7°C° 0 mm 4 m/s 745 mmHg 77%
    Voir plus